Location: Virginia Beach
(36.8530°N, 75.9780°W)
Time: 02:46:11
(UTC-04:00)

ISS - Visible Passes

Search period start: 11 May 2021 00:00
Search period end: 21 May 2021 00:00
Orbit: 418 x 421 km, 51.6° (Epoch: 11 May)

Date Brightness Start Highest point End Pass type
(mag) Time Alt. Az. Time Alt. Az. Time Alt. Az.
11 May -1.6 05:29:21 10° NNW 05:32:24 31° NNE 05:35:27 10° E visible
12 May -0.9 04:42:12 10° NNW 04:44:50 21° NNE 04:47:28 10° E visible
13 May -0.5 03:55:10 10° NNW 03:57:12 15° NNE 03:59:15 10° ENE visible
13 May -1.5 22:12:33 10° SW 22:13:28 17° WSW 22:13:28 17° WSW visible
14 May -0.3 03:08:24 10° N 03:09:31 11° NNE 03:10:39 10° NE visible
14 May -2.8 04:43:40 10° NW 04:46:58 51° NE 04:50:16 10° ESE visible
14 May -3.9 21:25:10 10° SW 21:28:28 62° SE 21:31:48 10° NE visible
14 May -0.8 23:03:12 10° WNW 23:05:33 17° NNW 23:07:55 10° NNE visible
15 May -1.8 03:56:25 10° NNW 03:59:28 31° NNE 04:02:31 10° E visible
15 May -3.1 20:38:05 10° SSW 20:41:07 33° SE 20:44:10 10° ENE visible
15 May -1.4 22:15:06 10° W 22:17:57 25° NNW 22:20:49 10° NNE visible
16 May -1.1 03:09:15 10° NNW 03:11:53 21° NNE 03:14:32 10° E visible
16 May -3.5 04:45:36 10° WNW 04:48:50 45° SW 04:52:04 10° SSE visible
16 May -2.3 21:27:14 10° WSW 21:30:24 39° NW 21:33:36 10° NE visible
17 May-0.302:26:40ENE02:26:40ENE02:21:41NNWvisible
17 May -3.9 04:00:14 37° NW 04:01:27 86° SW 04:04:50 10° SE visible
17 May -3.4 20:39:36 10° SW 20:42:55 69° NW 20:46:16 10° NE visible
17 May -0.4 22:18:38 10° NW 22:20:15 13° NNW 22:21:53 10° N visible
18 May -0.7 21:30:15 10° WNW 21:32:35 17° NNW 21:34:56 10° NNE visible
19 May -1.2 20:42:08 10° W 20:44:59 25° NNW 20:47:50 10° NNE visible
